Location: *
(2.5500°S, 65.9667°W)
Time: 05:39:43
(UTC+00:00)

Explorer 7 - Pass Details

Date: 26 April 2024
Orbit: 467 x 625 km, 50.3° (Epoch: 26 May)

Event Time Altitude Azimuth Distance (km) Brightness Sun altitude
Rises 21:03:52 0° 348° (NNW) 2,781 10.8 18.2°
Reaches altitude 10° 21:06:41 10° 5° (N) 1,853 9.7 17.5°
Maximum altitude 21:09:45 20° 52° (NE) 1,319 8.5 16.8°
Drops below altitude 10° 21:12:44 10° 99° (E) 1,785 8.9 16.0°
Sets 21:15:22 0° 117° (ESE) 2,643 9.7 15.4°
